Hercílio Luz International Airport
SBFL : now visible

Airfield :











YOU CAN JOIN US ON...

 
LOGIN :

Register | Disclaimer

   EN    FR    IT 

 









Legend :    VFR   Marginal VFR   IFR   Intensive IFR   Very Intensive IFR
Visi :
Ceiling :
>= 8 km
>= 3000ft
5 to 8 km
1000 to 3000 ft
1500m to 5 km
500 to 1000 ft
800 to 1500m
200 to 500 ft
< 800m
< 200 ft
Symbols :   Thunderstorms  Fog  Heavy snow  Heavy precipitations  Wind > 20 kt







- Airport Elevation : 16 ft
- IATA code : FLN


SBFL - Hercílio Luz International

CURRENT METAR :
  • 261100Z 17005KT 8000 -RA SCT012 BKN030 BKN070 15/14 Q1015

EXPIRED METARs :
  • 261000Z 19008KT 9000 -RA SCT015 BKN030 BKN080 15/13 Q1013
  • 260900Z 16008KT 9999 FEW012 BKN030 BKN080 16/13 Q1012

TAF TAF SBFL
Valid from the 26 at 12:00 until the 27 at 12:00 UTC


260945Z 2612/2712 16015KT 9999 BKN020 TX24/2617Z TN14/2705Z
PROB40 2612/2622 8000 SHRA BKN010 BKN020 FEW030TCU
BECMG 2700/2702 8000 BKN 015 RMK PEB
SBCW FIR / South America



MET'MAP, your aeronautical weather chart ! - Copyright ORBIFLY December 2007 - Disclaimer

ORBIFLY MET'MAP TEAM :

Programming & Development : Alexandra Zaïnal
Concept & Development : Baudouin d'Aumeries
Co-Development & Prog : Marc-Olivier Méhu
Technical & hardware support : Manuel Goepfert

Contact : metmap@orbifly.com




SOURCES & CREDITS :

   NOAA       Earth
Advisory